This demonstration page uses our WeatherBlox Daily Observations layout. Learn more.

Left ArrowRight Arrow

38.89511, -77.03637

Hourly Observations for May 4, 2018

Temp ( °F °C ) Dew Point ( °F °C ) Humidity (%) Winds ( mph kmh ) Pressure ( in mb ) Visibility ( mi km ) Precip ( " mm )
12:52 am 00:52 Partly Cloudy 73 22.8 60 15.6 64 64 S 7 11 30.01 1016 10 16 0.00 0.00
1:52 am 01:52 Partly Cloudy 72 22.2 59 15 64 64 S 8 13 30.00 1016 10 16 0.00 0.00
2:52 am 02:52 Mostly Cloudy 72 22.2 60 15.6 66 66 S 8 13 29.99 1016 10 16 0.00 0.00
3:52 am 03:52 Cloudy 70 21.1 60 15.6 71 71 S 8 13 29.99 1016 10 16 0.00 0.00
4:52 am 04:52 Cloudy 71 21.7 58 14.4 63 63 SSW 7 11 29.98 1015 10 16 0.00 0.00
5:29 am 05:29 Cloudy 70 21.1 59 15 68 68 S 7 11 30.00 1016 10 16 0.00 0.00
5:52 am 05:52 Cloudy 69 20.6 59 15 70 70 S 7 11 29.99 1016 10 16 0.00 0.00
6:36 am 06:36 Mostly Cloudy 69 20.6 60 15.6 73 73 S 8 13 30.00 1016 10 16 0.00 0.00
6:52 am 06:52 Mostly Cloudy 70 21.1 59 15 68 68 S 8 13 30.01 1016 10 16 0.00 0.00
7:52 am 07:52 Mostly Cloudy 70 21.1 60 15.6 71 71 S 7 11 30.01 1016 10 16 0.00 0.00
8:52 am 08:52 Mostly Cloudy 71 21.7 59 15 66 66 S 8 13 30.02 1017 10 16 0.00 0.00
9:52 am 09:52 Cloudy 72 22.2 59 15 64 64 S 12 19 30.01 1016 10 16 0.00 0.00
10:52 am 10:52 Mostly Cloudy 75 23.9 61 16.1 62 62 S 9 15 30.00 1016 10 16 0.00 0.00
11:52 am 11:52 Cloudy 78 25.6 61 16.1 56 56 S 13 20 29.98 1015 10 16 0.00 0.00
12:52 pm 12:52 Cloudy 81 27.2 63 17.2 54 54 S 12 19 29.94 1014 10 16 0.00 0.00
1:52 pm 13:52 Cloudy 85 29.4 63 17.2 48 48 SSE 13 20 29.92 1013 10 16 0.00 0.00
2:52 pm 14:52 Mostly Cloudy 85 29.4 62 16.7 46 46 S 12 19 29.88 1012 10 16 0.00 0.00
3:52 pm 15:52 Mostly Cloudy 90 32.2 59 15 35 35 S 16 26 29.87 1011 10 16 0.00 0.00
4:52 pm 16:52 Partly Cloudy 89 31.7 59 15 36 36 S 17 28 29.85 1011 10 16 0.00 0.00
5:52 pm 17:52 Partly Cloudy 89 31.7 59 15 36 36 SSW 18 30 29.85 1011 10 16 0.00 0.00
6:52 pm 18:52 Mostly Cloudy 86 30 59 15 40 40 S 17 28 29.84 1011 10 16 0.00 0.00
7:52 pm 19:52 Mostly Cloudy 86 30 59 15 40 40 SW 12 19 29.87 1012 10 16 0.00 0.00
8:24 pm 20:24 Cloudy with Light Rain 86 30 59 15 40 40 W 10 17 29.91 1013 10 16 0.00 0.03
8:30 pm 20:30 Cloudy with Light Rain 84 28.9 60 15.6 44 44 NW 17 28 29.91 1013 10 16 0.00 0.03
8:40 pm 20:40 Cloudy with Light Rain 78 25.6 64 17.8 62 62 WNW 18 30 29.94 1014 8 13 0.00 0.03
8:52 pm 20:52 Cloudy with Light Rain 77 25 64 17.8 64 64 W 10 17 29.93 1014 10 16 0.00 0.03
9:52 pm 21:52 Cloudy 76 24.4 65 18.3 69 69 S 8 13 29.91 1013 10 16 0.00 0.03
10:52 pm 22:52 Cloudy 77 25 66 18.9 69 69 SW 7 11 29.93 1013 10 16 0.00 0.03
11:52 pm 23:52 Mostly Cloudy 78 25.6 64 17.8 62 62 WSW 7 11 29.94 1014 10 16 0.00 0.00

Powered by AerisWeather